Waarnemingen

Advertentie
Mijn weer
Mont-De-Marsan, Frankrijk (7607): temperatuur & dauwpunt: 14.08.2017 00:00:00 - 20.08.2017 00:00:00 (CEST)Mont-De-Marsan, Frankrijk (7607): temperatuur 5cm: 14.08.2017 00:00:00 - 20.08.2017 00:00:00 (CEST)Mont-De-Marsan, Frankrijk (7607): temperatuur -20cm & temperatuur -100cm: 14.08.2017 00:00:00 - 20.08.2017 00:00:00 (CEST)Mont-De-Marsan, Frankrijk (7607): windsnelheid & windstoten: 14.08.2017 00:00:00 - 20.08.2017 00:00:00 (CEST)Mont-De-Marsan, Frankrijk (7607): windrichting: 14.08.2017 00:00:00 - 20.08.2017 00:00:00 (CEST)Mont-De-Marsan, Frankrijk (7607): luchtdruk: 14.08.2017 00:00:00 - 20.08.2017 00:00:00 (CEST)Mont-De-Marsan, Frankrijk (7607): zicht: 14.08.2017 00:00:00 - 20.08.2017 00:00:00 (CEST)Mont-De-Marsan, Frankrijk (7607): Zonneschijnduur: 14.08.2017 00:00:00 - 20.08.2017 00:00:00 (CEST)Mont-De-Marsan, Frankrijk (7607): neerslag: 14.08.2017 00:00:00 - 20.08.2017 00:00:00 (CEST)
Datum & Tijd tt [°C] td [°C] tt 5cm [°C] tt -20cm [°C] tt -100cm [°C] ff [km/u] ff [kn] fx [km/u] fx [kn] dd ppp [hPa] vv [km] sd [min] rr [mm]
20.08.2017 00:00:00 15,1 10,3 10,4 23,1 21,0 0 0 7 4 N 1025,4 60 0 0,0
19.08.2017 23:00:00 16,7 10,1 12,5 23,2 21,0 2 1 14 8 N 1024,9 60 0 0,0
19.08.2017 22:00:00 18,3 10,4 16,6 23,1 21,0 11 6 20 11 NNW 1024,3 60 0 0,0
19.08.2017 21:00:00 20,7 10,5 19,0 23,0 21,0 11 6 20 11 NW 1023,6 60 33 0,0
19.08.2017 20:00:00 24,0 8,4 26,5 22,8 21,0 5 3 18 10 NNW 1023,1 60 60 0,0
19.08.2017 19:00:00 24,7 9,0 30,4 22,6 21,0 9 5 19 11 NNW 1022,9 60 60 0,0
19.08.2017 18:00:00 24,9 9,2 31,5 22,3 21,0 8 4 26 14 NO 1023,1 60 60 0,0
19.08.2017 17:00:00 25,0 10,1 30,3 22,0 21,0 11 6 23 13 NNW 1023,3 60 60 0,0
19.08.2017 16:00:00 24,2 10,8 31,1 21,8 21,0 4 2 27 14 ONO 1023,6 60 60 0,0
19.08.2017 15:00:00 23,8 11,8 28,4 21,6 21,0 13 7 23 12 NNW 1023,9 60 54 0,0
19.08.2017 14:00:00 22,9 12,5 27,2 21,5 21,0 13 7 24 13 NNW 1023,9 60 44 0,0
19.08.2017 13:00:00 21,8 12,1 24,6 21,5 21,0 7 4 22 12 N 1024,2 60 38 0,0
19.08.2017 12:00:00 19,9 12,6 24,3 21,5 21,0 6 4 18 10 NO 1024,4 60 38 0,0
19.08.2017 11:00:00 19,7 13,4 22,5 21,5 21,0 10 5 19 10 NO 1024,7 60 49 0,0
19.08.2017 10:00:00 17,4 14,3 17,7 21,7 21,0 10 5 15 8 NO 1024,6 59 24 0,0
19.08.2017 09:00:00 15,2 14,6 12,8 21,8 21,0 8 4 12 6 ONO 1024,5 36 30 0,2
19.08.2017 08:00:00 13,1 12,3 9,3 21,9 21,0 4 2 9 5 O 1023,9 27 0 0,0
19.08.2017 07:00:00 13,0 12,2 8,8 22,1 21,0 3 1 3 2 NNO 1023,2 0,9 0 0,0
19.08.2017 06:00:00 13,8 13,0 9,4 22,2 21,0 0 0 5 3 N 1022,9 18 0 0,0
19.08.2017 05:00:00 14,9 14,1 10,6 22,3 21,0 0 0 3 2 N 1023,0 20 0 0,0
19.08.2017 04:00:00 15,7 14,6 12,9 22,4 21,0 4 2 10 5 NNW 1023,1 52 0 0,0
19.08.2017 03:00:00 15,9 14,8 13,6 22,6 21,0 3 2 5 3 NNW 1023,0 60 0 0,0
19.08.2017 02:00:00 16,4 15,1 13,6 22,7 21,0 3 1 9 5 WNW 1023,1 60 0 0,0
19.08.2017 01:00:00 16,4 15,3 12,5 22,8 21,0 0 0 10 5 N 1023,1 60 0 0,0
19.08.2017 00:00:00 16,8 15,1 12,9 22,9 21,0 6 4 9 5 W 1022,9 60 0 0,0
18.08.2017 23:00:00 17,5 15,1 14,1 22,9 21,0 7 4 13 7 W 1022,5 60 0 0,0
18.08.2017 22:00:00 19,2 15,3 17,5 22,9 21,0 11 6 16 8 WNW 1022,4 60 0 0,0
18.08.2017 21:00:00 20,4 15,6 18,9 22,9 21,0 6 3 11 6 WNW 1021,5 60 0 0,0
18.08.2017 20:00:00 22,1 15,9 22,0 22,8 21,0 10 6 23 13 WNW 1021,4 60 13 0,0
18.08.2017 19:00:00 23,3 18,0 24,4 22,8 21,0 8 4 19 10 NNW 1021,0 60 6 0,0
18.08.2017 18:00:00 23,6 17,8 24,4 22,8 21,0 9 5 20 11 WZW 1020,8 60 11 0,0
18.08.2017 17:00:00 22,4 18,0 23,1 22,7 21,0 11 6 23 12 W 1020,9 60 0 0,0
18.08.2017 16:00:00 22,6 17,5 23,0 22,7 21,0 13 7 22 12 WNW 1020,9 59 0 0,0
18.08.2017 15:00:00 22,6 17,9 23,2 22,7 21,0 11 6 20 11 WNW 1020,8 60 0 0,0
18.08.2017 14:00:00 22,4 17,7 22,8 22,7 21,0 25 14 40 21 WNW 1020,5 60 0 0,0
18.08.2017 13:00:00 22,8 18,3 22,9 22,7 21,0 9 5 19 10 WNW 1020,2 60 1 0,0
18.08.2017 12:00:00 21,4 18,2 21,6 22,7 21,0 12 6 20 11 WNW 1020,3 60 0 0,0
18.08.2017 11:00:00 21,5 18,1 22,1 22,8 21,0 8 5 15 8 NNW 1019,7 57 0 0,0
18.08.2017 10:00:00 19,7 18,0 19,7 22,9 21,0 6 3 13 7 WNW 1019,5 53 0 0,0
18.08.2017 09:00:00 18,2 17,2 17,8 23,0 21,0 5 3 17 9 WNW 1019,3 18 0 0,0
18.08.2017 08:00:00 17,5 16,5 16,9 23,1 20,9 10 5 14 8 W 1019,0 11 3 0,0
18.08.2017 07:00:00 17,5 16,5 16,6 23,3 21,0 9 5 12 6 WZW 1018,8 20 0 0,0
18.08.2017 06:00:00 18,0 16,5 16,6 23,4 21,0 7 4 10 5 WZW 1018,6 39 0 0,0
18.08.2017 05:00:00 17,2 16,1 15,5 23,6 21,0 8 4 9 5 W 1018,6 20 0 0,0
18.08.2017 04:00:00 17,5 16,4 16,0 23,7 21,0 6 3 10 5 W 1018,6 32 0 0,0
18.08.2017 03:00:00 18,5 16,1 16,5 23,9 21,0 3 2 10 5 NW 1018,4 60 0 0,0
18.08.2017 02:00:00 19,3 16,3 17,2 24,0 21,0 6 4 12 6 NW 1018,6 60 0 0,0
18.08.2017 01:00:00 20,6 16,8 18,6 24,1 21,0 7 4 19 10 N 1018,2 60 0 0,0
18.08.2017 00:00:00 21,0 17,2 18,0 24,1 21,0 9 5 13 7 NNW 1018,3 60 0 0,0
17.08.2017 23:00:00 22,2 17,1 17,5 24,1 21,0 4 2 10 5 NW 1018,5 60 0 0,0
17.08.2017 22:00:00 23,9 17,2 19,2 24,0 20,9 3 2 9 5 WNW 1018,3 60 0 0,0
17.08.2017 21:00:00 27,4 16,4 25,7 23,9 21,0 7 4 14 8 ZZW 1018,5 60 36 0,0
17.08.2017 20:00:00 29,3 15,8 31,8 23,7 21,0 6 3 13 7 Z 1018,5 60 60 0,0
17.08.2017 19:00:00 29,9 16,3 33,9 23,4 21,0 4 2 14 8 WZW 1018,6 60 60 0,0
17.08.2017 18:00:00 30,0 16,1 35,0 23,0 21,0 11 6 18 10 W 1019,2 60 60 0,0
17.08.2017 17:00:00 29,6 15,3 36,1 22,7 21,0 8 5 20 11 WNW 1019,4 60 60 0,0
17.08.2017 16:00:00 29,1 13,3 36,7 22,4 21,0 5 3 16 9 NNO 1019,8 60 60 0,0
17.08.2017 15:00:00 27,9 14,9 35,2 22,1 21,0 10 5 16 9 NW 1020,5 60 60 0,0
17.08.2017 14:00:00 27,1 15,1 35,6 21,8 21,0 6 4 18 10 Z 1021,0 60 60 0,0
17.08.2017 13:00:00 25,8 15,5 33,9 21,7 20,9 5 3 16 9 ZW 1021,4 60 60 0,0
17.08.2017 12:00:00 25,3 15,6 30,8 21,7 20,9 4 2 9 5 Z 1021,8 60 60 0,0
17.08.2017 11:00:00 23,1 16,4 27,8 21,8 21,0 4 2 8 5 O 1022,1 60 60 0,0
17.08.2017 10:00:00 20,5 16,1 23,4 21,9 20,9 0 0 4 2 N 1022,1 60 60 0,0
17.08.2017 09:00:00 16,3 15,7 14,6 22,1 21,0 2 1 10 5 ONO 1022,0 13 50 0,0
17.08.2017 08:00:00 13,8 13,3 10,7 22,2 21,0 0 0 4 2 N 1021,6 1,0 0 0,2
17.08.2017 07:00:00 12,9 12,3 11,0 22,4 21,0 3 1 7 4 ONO 1021,4 1,0 0 -
17.08.2017 06:00:00 13,8 12,9 10,6 22,5 20,9 3 1 4 2 O 1021,4 13 0 0,0
17.08.2017 05:00:00 14,3 13,5 10,7 22,7 21,0 2 1 3 2 N 1021,4 20 0 0,0
17.08.2017 04:00:00 15,2 14,1 11,5 22,9 20,9 2 1 4 2 NW 1021,7 19 0 0,0
17.08.2017 03:00:00 16,1 15,0 11,8 23,1 20,9 2 1 3 2 WNW 1021,8 35 0 0,0
17.08.2017 02:00:00 16,5 14,9 13,2 23,2 20,9 0 0 4 2 N 1022,1 53 0 0,0
17.08.2017 01:00:00 16,8 15,1 13,0 23,3 20,9 0 0 5 3 N 1022,5 60 0 0,0
17.08.2017 00:00:00 17,7 15,1 15,1 23,4 20,9 4 2 10 5 WNW 1022,8 60 0 0,0
16.08.2017 23:00:00 19,2 15,5 16,4 23,5 20,9 7 4 14 8 NW 1022,8 60 0 0,0
16.08.2017 22:00:00 20,6 16,2 17,2 23,4 20,9 4 2 7 4 W 1022,5 60 0 0,0
16.08.2017 21:00:00 23,0 16,3 20,8 23,4 20,9 6 3 10 6 WZW 1022,2 60 35 0,0
16.08.2017 20:00:00 24,5 16,2 25,0 23,4 20,9 5 3 16 8 WNW 1021,8 60 44 0,0
16.08.2017 19:00:00 24,6 16,6 25,3 23,2 20,9 10 5 18 10 W 1021,8 60 14 0,0
16.08.2017 18:00:00 24,4 16,1 26,3 23,1 20,9 9 5 21 11 WNW 1021,8 60 0 0,0
16.08.2017 17:00:00 24,5 16,2 25,0 22,9 20,9 13 7 22 12 WNW 1021,7 60 0 0,0
16.08.2017 16:00:00 24,3 16,6 25,8 22,7 20,9 11 6 20 11 NW 1021,6 60 1 0,0
16.08.2017 15:00:00 25,3 16,7 29,2 22,5 20,9 5 3 18 10 ZW 1021,6 60 39 0,0
16.08.2017 14:00:00 24,2 16,2 27,9 22,4 20,9 4 2 16 9 NW 1021,9 60 40 0,0
16.08.2017 13:00:00 22,9 16,4 27,4 22,4 20,9 7 4 18 10 WNW 1022,3 60 11 0,0
16.08.2017 12:00:00 21,8 15,9 25,4 22,4 20,9 4 2 9 5 ZO 1022,4 20 0 0,0
16.08.2017 11:00:00 20,5 16,1 21,9 22,4 20,9 0 0 6 3 N 1022,2 60 0 0,0
16.08.2017 10:00:00 18,9 16,3 19,2 22,5 20,9 0 0 7 4 N 1022,3 60 0 0,0
16.08.2017 09:00:00 18,3 15,9 18,2 22,6 20,9 3 2 7 4 N 1022,3 60 0 0,0
16.08.2017 08:00:00 17,9 16,1 17,8 22,6 20,9 4 2 8 4 - 1021,8 10 0 0,0
16.08.2017 07:00:00 17,9 16,1 17,8 22,8 20,9 4 2 8 5 NW 1021,5 58 0 0,0
16.08.2017 06:00:00 17,9 15,9 17,9 22,9 20,9 5 3 11 6 NNO 1020,9 56 0 0,0
16.08.2017 05:00:00 17,9 16,1 17,9 23,0 20,9 5 3 9 5 N 1021,1 52 0 0,0
16.08.2017 04:00:00 18,1 16,3 18,0 23,1 20,9 4 2 6 4 NNW 1021,3 50 0 0,0
16.08.2017 03:00:00 18,2 16,2 18,1 23,2 20,9 4 2 8 4 N 1021,5 53 0 0,0
16.08.2017 02:00:00 18,3 16,5 17,5 23,3 20,9 4 2 9 5 NW 1022,1 56 0 0,0
16.08.2017 01:00:00 18,5 16,1 17,5 23,4 20,9 4 2 11 6 NW 1022,3 60 0 0,0
16.08.2017 00:00:00 19,6 16,8 18,8 23,5 20,8 7 4 9 5 WNW 1022,3 60 0 0,0
15.08.2017 23:00:00 20,1 16,7 19,3 23,5 20,9 6 3 14 7 W 1021,8 60 0 0,0
15.08.2017 22:00:00 20,4 17,0 19,3 23,5 20,9 8 5 13 7 WNW 1021,1 60 0 0,0
15.08.2017 21:00:00 21,4 17,4 21,1 23,5 20,9 10 5 16 9 WNW 1020,5 60 2 0,0
15.08.2017 20:00:00 22,7 17,8 22,9 23,5 20,9 11 6 16 9 WNW 1020,2 60 0 0,0
15.08.2017 19:00:00 23,9 18,1 24,8 23,4 20,9 12 6 22 12 NW 1019,9 57 22 0,0
15.08.2017 18:00:00 24,7 17,4 26,4 23,2 20,8 13 7 22 12 WNW 1019,8 54 8 0,0
15.08.2017 17:00:00 24,6 18,8 24,4 23,1 20,8 11 6 27 15 NW 1019,7 60 2 0,0
15.08.2017 16:00:00 24,7 18,2 26,6 23,0 20,8 11 6 21 11 W 1019,3 54 3 0,0
15.08.2017 15:00:00 24,9 18,8 28,0 22,9 20,8 10 6 22 12 WNW 1019,2 34 20 0,0
15.08.2017 14:00:00 24,2 19,1 26,5 22,9 20,8 5 3 12 6 NW 1019,0 20 11 0,0
15.08.2017 13:00:00 22,7 19,3 21,7 22,9 20,8 3 2 9 5 ONO 1018,8 20 7 0,0
15.08.2017 12:00:00 21,3 19,0 21,3 23,0 20,8 5 3 14 7 ZW 1019,7 20 0 0,0
15.08.2017 11:00:00 21,1 19,2 21,0 23,0 20,8 3 1 12 7 ZZW 1018,5 18 0 0,0
15.08.2017 10:00:00 20,8 19,5 20,4 23,1 20,8 6 4 12 7 WNW 1018,7 16 0 0,0
15.08.2017 09:00:00 20,4 19,2 20,4 23,2 20,8 6 3 12 7 WNW 1018,5 11 0 0,0
15.08.2017 08:00:00 20,2 19,4 19,5 23,3 20,8 4 2 15 8 NNW 1017,5 7 33 0,0
15.08.2017 07:00:00 20,4 19,4 20,1 23,4 20,8 7 4 11 6 WZW 1017,7 7 0 0,0
15.08.2017 06:00:00 20,4 19,6 20,0 23,6 20,8 7 4 29 16 WZW 1017,2 6 0 0,0
15.08.2017 05:00:00 20,2 19,4 19,9 23,7 20,8 15 8 32 18 ZZW 1017,4 4,9 0 0,8
15.08.2017 04:00:00 20,4 19,4 19,4 23,9 20,8 7 4 11 6 ZO 1016,9 9 0 0,0
15.08.2017 03:00:00 20,0 19,0 19,3 24,0 20,8 3 2 18 10 W 1017,4 9 0 0,0
15.08.2017 02:00:00 19,9 18,6 18,7 24,1 20,8 13 7 19 10 W 1017,8 18 0 0,0
15.08.2017 01:00:00 19,9 17,9 18,8 24,2 20,8 3 1 23 13 WNW 1016,4 53 0 0,0
15.08.2017 00:00:00 19,8 17,8 18,3 24,2 20,8 16 8 66 35 NNO 1016,2 8 0 2,0
14.08.2017 23:00:00 21,9 17,5 19,3 24,3 20,8 36 19 63 34 NW 1015,8 0,7 0 6,0
14.08.2017 22:00:00 27,2 17,9 23,2 24,1 20,8 7 4 10 5 O 1012,0 60 0 0,0
14.08.2017 21:00:00 28,9 17,7 23,6 24,0 20,8 3 2 6 4 NO 1011,4 60 0 0,0
14.08.2017 20:00:00 33,2 16,1 31,5 23,8 20,8 6 3 16 8 OZO 1011,1 60 20 0,0
14.08.2017 19:00:00 34,8 14,7 39,0 23,5 20,8 11 6 19 11 ZO 1011,1 60 60 0,0
14.08.2017 18:00:00 35,3 14,0 41,2 23,1 20,8 8 4 18 10 ZO 1011,3 60 60 0,0
14.08.2017 17:00:00 34,9 15,3 41,1 22,8 20,8 8 4 21 11 ZO 1011,7 60 60 0,0
14.08.2017 16:00:00 34,1 16,5 40,7 22,5 20,8 14 8 26 14 O 1012,2 60 60 0,0
14.08.2017 15:00:00 32,4 16,7 39,7 22,2 20,8 14 8 25 14 ZO 1012,9 60 60 0,0
14.08.2017 14:00:00 31,3 16,9 39,0 22,0 20,8 13 7 23 12 OZO 1013,3 20 60 0,0
14.08.2017 13:00:00 29,3 17,2 35,6 21,9 20,7 10 6 22 12 OZO 1014,0 60 60 0,0
14.08.2017 12:00:00 28,0 17,2 31,8 21,9 20,8 15 8 22 12 O 1014,3 60 60 0,0
14.08.2017 11:00:00 25,6 16,4 28,8 22,0 20,8 12 7 24 13 OZO 1014,7 60 60 0,0
14.08.2017 10:00:00 22,9 16,7 23,6 22,1 20,7 12 6 21 11 O 1015,1 60 60 0,0
14.08.2017 09:00:00 19,6 15,5 17,4 22,3 20,8 9 5 12 6 O 1015,3 60 60 0,0
14.08.2017 08:00:00 16,3 14,8 11,3 22,4 20,8 9 5 10 5 ONO 1015,5 58 14 0,0
14.08.2017 07:00:00 15,0 13,7 11,3 22,6 20,7 0 0 8 5 N 1015,6 60 0 0,0
14.08.2017 06:00:00 15,1 13,1 13,2 22,8 20,8 7 4 10 6 ONO 1015,6 60 0 0,0
14.08.2017 05:00:00 15,6 14,1 12,4 22,9 20,8 9 5 10 6 ONO 1016,0 54 0 0,0
14.08.2017 04:00:00 15,6 13,3 12,5 23,1 20,8 6 3 7 4 ONO 1016,4 60 0 0,0
14.08.2017 03:00:00 16,1 13,9 13,3 23,2 20,7 4 2 6 3 NO 1016,7 57 0 0,0
14.08.2017 02:00:00 16,9 14,2 13,8 23,3 20,8 6 3 7 4 ONO 1017,0 53 0 0,0
14.08.2017 01:00:00 18,2 14,7 14,4 23,4 20,8 5 3 7 4 ONO 1017,3 58 0 0,0
14.08.2017 00:00:00 18,6 15,1 14,6 23,4 20,8 5 3 7 4 NO 1017,7 60 0 0,0

tt = temperatuur
td = dauwpunt
tt 5cm = temperatuur 5cm
tt -20cm = temperatuur -20cm
tt -100cm = temperatuur -100cm
ff = windsnelheid
fx = windstoten
dd = windrichting
ppp = luchtdruk
vv = zicht
sd = Zonneschijnduur
rr = neerslag

Weerstations in de omgeving